Weather History for Naples, FL

Change the Weather History Date:

Tuesday, January 3, 2012

  Actual Average Record
Temperature  
Mean Temperature 51 °F 65 °F  
Max Temperature 61 °F 75 °F 86 °F (1973)
Min Temperature 41 °F 54 °F 34 °F (1979)
Degree Days  
Heating Degree Days 14 3  
Month to date heating degree days 14 9  
Since 1 July heating degree days 39 87  
Cooling Degree Days 0 3  
Month to date cooling degree days 4 9  
Year to date cooling degree days 4 9  
Growing Degree Days 2 (Base 50)    
Moisture  
Dew Point 31 °F    
Average Humidity 47    
Maximum Humidity 72    
Minimum Humidity 22    
Precipitation  
Precipitation 0.00 in 0.04 in 1.30 in (1996)
Month to date precipitation 0.00 0.15  
Year to date precipitation 0.00 0.15  
Snow  
Snow 0.00 in - - ()
Month to date snowfall 0.0  
Since 1 July snowfall 0.0  
Snow Depth 0.00 in    
Sea Level Pressure  
Sea Level Pressure 30.30 in    
Wind  
Wind Speed 8 mph (North)    
Max Wind Speed 24 mph    
Max Gust Speed 37 mph    
Visibility 10 miles    
Events      
T = Trace of Precipitation, MM = Missing Value Source: NWS Daily Summary

Daily Weather History Graph

Daily Weather History Graph

Search for Another Location

Airport:

Trip Planner

Search our weather history database for the weather conditions in past years. The results will help you decide how hot, cold, wet, or windy it might be!

Date:

Astronomy

Jan. 03, 2012 Rise Set
Actual Time 7:15 AM EST 5:47 PM EST
Civil Twilight 6:49 AM EST 6:13 PM EST
Nautical Twilight 6:21 AM EST 6:41 PM EST
Astronomical Twilight 5:52 AM EST 7:10 PM EST
Moon 1:27 PM EST (1/3) 2:14 AM EST (1/3)
Length of Visible Light 11h 23m
Length of Day
10h 32m
Waxing Gibbous, 72% of the Moon is Illuminated
Jan 3
Waxing Gibbous
Jan 9
Full
Jan 16
Last Quarter
Jan 23
New
Jan 30
First Quarter

Hourly Weather History & Observations

Time (EST) Temp. Windchill Dew Point Humidity Pressure Visibility Wind Dir Wind Speed Gust Speed Precip Events Conditions
12:53 AM 55.0 °F - 45.0 °F 69% 30.24 in 10.0 mi North 4.6 mph - N/A   Clear
1:53 AM 54.0 °F - 44.1 °F 69% 30.22 in 10.0 mi North 4.6 mph - N/A   Clear
2:53 AM 53.1 °F - 44.1 °F 71% 30.21 in 10.0 mi NNE 4.6 mph - N/A   Clear
3:53 AM 54.0 °F - 44.1 °F 69% 30.22 in 10.0 mi North 6.9 mph - N/A   Clear
4:53 AM 55.0 °F - 43.0 °F 64% 30.22 in 10.0 mi North 5.8 mph - N/A   Partly Cloudy
5:53 AM 61.0 °F - 43.0 °F 52% 30.23 in 10.0 mi NW 17.3 mph 31.1 mph N/A   Scattered Clouds
6:53 AM 60.8 °F - 41.0 °F 48% 30.25 in 10.0 mi NW 17.3 mph 31.1 mph N/A   Partly Cloudy
7:53 AM 57.9 °F - 42.1 °F 56% 30.30 in 10.0 mi NNW 16.1 mph 31.1 mph N/A   Mostly Cloudy
8:53 AM 55.4 °F - 37.4 °F 51% 30.33 in 10.0 mi North 15.0 mph 25.3 mph N/A   Partly Cloudy
9:53 AM 54.0 °F - 35.1 °F 49% 30.36 in 10.0 mi North 10.4 mph 26.5 mph N/A   Clear
10:53 AM 53.1 °F - 28.9 °F 40% 30.35 in 10.0 mi NNW 9.2 mph 20.7 mph N/A   Clear
11:53 AM 52.0 °F - 26.1 °F 37% 30.34 in 10.0 mi North 13.8 mph 25.3 mph N/A   Clear
12:53 PM 53.1 °F - 25.0 °F 34% 30.30 in 10.0 mi North 11.5 mph 19.6 mph N/A   Clear
1:53 PM 54.0 °F - 21.0 °F 28% 30.30 in 10.0 mi North 8.1 mph 20.7 mph N/A   Clear
2:53 PM 54.0 °F - 16.0 °F 22% 30.29 in 10.0 mi NNE 9.2 mph 17.3 mph N/A   Clear
3:53 PM 54.0 °F - 15.1 °F 22% 30.29 in 10.0 mi NNE 6.9 mph - N/A   Clear
4:53 PM 53.1 °F - 17.1 °F 24% 30.30 in 10.0 mi NNE 9.2 mph - N/A   Clear
5:53 PM 50.0 °F - 18.0 °F 28% 30.32 in 10.0 mi North 4.6 mph - N/A   Clear
6:53 PM 46.9 °F - 21.0 °F 36% 30.33 in 10.0 mi NNE 4.6 mph - N/A   Clear
7:53 PM 46.0 °F 44.8 °F 24.1 °F 42% 30.35 in 10.0 mi NE 3.5 mph - N/A   Clear
8:53 PM 44.1 °F 42.5 °F 26.1 °F 49% 30.37 in 10.0 mi NNE 3.5 mph - N/A   Clear
9:53 PM 43.0 °F 40.3 °F 27.0 °F 53% 30.38 in 10.0 mi NNE 4.6 mph - N/A   Clear
10:53 PM 43.0 °F 40.3 °F 27.0 °F 53% 30.39 in 10.0 mi NNE 4.6 mph - N/A   Clear
11:53 PM 41.0 °F 38.0 °F 27.0 °F 57% 30.38 in 10.0 mi NNE 4.6 mph - N/A   Clear